Location: Bergnershof
(48.9468°N, 10.9431°E)
Time: 00:02:05
(UTC+00:00)

ATLAS CENTAUR R/B - Pass Details

Date: 03 March 2021
Orbit: 475 x 670 km, 64.7° (Epoch: 30 March)

Event Time Altitude Azimuth Distance (km) Brightness Sun altitude
Rises 19:58:30 0° 253° (WSW) 2,520 5.3 -28.9°
Reaches altitude 10° 20:00:55 10° 268° (W) 1,647 4.5 -29.3°
Enters shadow 20:03:16 22° 307° (NW) 1,084 3.5 -29.6°
